Flag Weather past 2 weeks in Niamey, Niger

Now
70 °F

Clear.


Feels Like: 70 °F
Forecast: 70 / 97 °F
Wind: 1 mph from West

Location: Niamey-Aero

Current Time: Nov 26, 2014 at 4:34:07 AM

Latest Report: Nov 26, 2014 at 4:00 AM


Visibility: 5 mi

Pressure: 29.89 "Hg

Humidity: 31%

Dew point: 37 °F

Location of NiameyLocation

Historic Weather in Niamey — Graph

°F

Niamey temperature yesterday

Maximum temperature yesterday: 95 °F (at 3:00 PM)
Minimum temperature yesterday: 66 °F (at 7:00 AM)
Average temperature yesterday: 81 °F

Past Weeks' High & Low Weather Summary

 TemperatureHumidityPressure
High102 °F (Nov 12, 3:00 PM)57% (Nov 12, 6:00 AM)30.01 "Hg (Nov 12, 6:00 AM)
Low66 °F (Nov 25, 7:00 AM)6% (Nov 16, 3:00 PM)29.74 "Hg (Nov 11, 4:00 PM)
Average85 °F19%29.87 "Hg
* Reported Nov 11 3:00 AM — Nov 26 3:00 AM, Niamey, Weather by CustomWeather, © 2014

Note: Actual official high and low records may vary slightly from our data, if they occured in-between our weather recording intervals... More about our weather records

Advertising

Niamey weather history for previous 24 hours

 ConditionsComfort  
Time TempWeatherWind HumidityBarometerVisibility
3:00 AM
Nov 26
72 °FClear.1 mph27%29.89 "Hg5 mi
2:00 AM75 °FClear.2 mph24%29.89 "Hg5 mi
1:00 AM75 °FClear.1 mph22%29.92 "Hg5 mi
12:00 AM77 °FClear.3 mph21%29.92 "Hg5 mi
11:00 PM
Nov 25
77 °FClear.6 mph19%29.92 "Hg5 mi
10:00 PM79 °FClear.7 mph18%29.92 "Hg4 mi
9:00 PM81 °FClear.3 mph17%29.92 "Hg4 mi
8:00 PM84 °FClear.5 mph15%29.89 "Hg4 mi
7:00 PM86 °FClear.6 mph13%29.86 "Hg4 mi
6:00 PM91 °FSunny.7 mph10%29.86 "Hg10 mi
5:00 PM93 °FPassing clouds.6 mph9%29.83 "HgN/A
4:00 PM93 °FSunny.10 mph9%29.83 "Hg10 mi
3:00 PM95 °FPassing clouds.9 mph9%29.83 "HgN/A
2:00 PM93 °FPassing clouds.10 mph10%29.86 "HgN/A
1:00 PM91 °FPassing clouds.9 mph10%29.92 "HgN/A
12:00 PM91 °FPassing clouds.12 mph11%29.92 "HgN/A
11:00 AM88 °FSunny.17 mph13%29.95 "Hg10 mi
10:00 AM86 °FSunny.17 mph13%29.95 "Hg10 mi
9:00 AM81 °FClear.14 mph17%29.95 "Hg5 mi
8:00 AM73 °FClear.3 mph22%29.95 "Hg4 mi
7:00 AM66 °FClear.No wind35%29.92 "Hg5 mi
6:00 AM68 °FClear.3 mph30%29.92 "Hg10 mi
5:00 AM68 °FClear.3 mph30%29.92 "Hg10 mi
4:00 AM68 °FClear.1 mph30%29.92 "Hg10 mi
Weather by CustomWeather, © 2014

See weather overviewHow to use our weather pages